Flag for U.S.A. Weather past 2 weeks in West Covina, California, U.S.A.

Now
94 °F

Sunny.


Feels Like: 91 °F
Forecast: 64 / 93 °F
Wind: 7 mph from Southwest

Location: Fullerton Municipal Airport

Current Time: Aug 27, 2014 at 2:04:49 PM

Latest Report: Aug 27, 2014 at 12:53 PM


Visibility: 10 mi

Pressure: 29.98 "Hg

Humidity: 21%

Dew point: 49 °F

Location of West CovinaLocation

Historic Weather in West Covina — Graph

°F

West Covina temperature yesterday

Maximum temperature yesterday: 88 °F (at 4:53 PM)
Minimum temperature yesterday: 67 °F (at 3:53 AM)
Average temperature yesterday: 76 °F

Past Weeks' High & Low Weather Summary

 TemperatureHumidityPressure
High95 °F (Aug 15, 3:53 PM)87% (Aug 18, 6:53 AM)30.01 "Hg (Aug 18, 6:53 AM)
Low66 °F (Aug 14, 3:53 AM)18% (Aug 16, 3:53 PM)29.78 "Hg (Aug 18, 4:53 PM)
Average76 °F60%29.91 "Hg
* Reported Aug 12 11:53 AM — Aug 27 11:53 AM, West Covina, Weather by CustomWeather, © 2014

Note: Actual official high and low records may vary slightly from our data, if they occured in-between our weather recording intervals... More about our weather records

Advertising

West Covina weather history for previous 24 hours

 ConditionsComfort  
Time TempWeatherWind HumidityBarometerVisibility
11:53 AM
Aug 27
92 °FSunny.No wind26%30.00 "Hg10 mi
10:53 AM87 °FSunny.3 mph33%30.01 "Hg10 mi
9:53 AM83 °FSunny.No wind44%30.01 "Hg10 mi
8:53 AM78 °FSunny.No wind56%30.01 "Hg10 mi
7:53 AM73 °FSunny.No wind69%30.01 "Hg9 mi
6:53 AM68 °FClear.No wind78%30.01 "Hg9 mi
5:53 AM68 °FClear.No wind78%30.00 "Hg10 mi
4:53 AM68 °FClear.No wind78%29.99 "Hg10 mi
3:53 AM70 °FClear.No wind76%29.98 "Hg10 mi
2:53 AM70 °FClear.No wind73%29.98 "Hg10 mi
1:53 AM71 °FClear.No wind71%29.97 "Hg10 mi
12:53 AM72 °FClear.No wind68%29.97 "Hg10 mi
11:53 PM
Aug 26
72 °FClear.No wind68%29.96 "Hg10 mi
10:53 PM73 °FClear.No wind64%29.96 "Hg10 mi
9:53 PM74 °FClear.3 mph62%29.96 "Hg10 mi
8:53 PM76 °FClear.5 mph54%29.94 "Hg10 mi
7:53 PM78 °FSunny.3 mph42%29.92 "Hg10 mi
6:53 PM81 °FSunny.6 mph42%29.90 "Hg10 mi
5:53 PM85 °FSunny.6 mph40%29.89 "Hg10 mi
4:53 PM88 °FSunny.6 mph36%29.89 "Hg10 mi
3:53 PM87 °FSunny.7 mph32%29.90 "Hg10 mi
2:53 PM87 °FSunny.N/A32%29.92 "Hg10 mi
Weather by CustomWeather, © 2014

See weather overviewHow to use our weather pages